Flag for Canada Weather past 2 weeks in Cornwall, Ontario, Canada

Now
57 °F

Cool.


Feels Like: 57 °F
Forecast: 52 / 81 °F
Wind: No wind

Location: St Anicet

Current Time: May 28, 2015 at 11:06:40 PM

Latest Report: May 28, 2015 at 10:00 PM


Visibility: N/A

Pressure: 30.25 "Hg

Humidity: 95%

Dew point: 56 °F

Location of CornwallLocation

Historic Weather in Cornwall — Graph

°F

Cornwall temperature yesterday

Maximum temperature yesterday: 83 °F (at 2:00 PM)
Minimum temperature yesterday: 66 °F (at 12:00 AM)
Average temperature yesterday: 77 °F

Past Weeks' High & Low Weather Summary

 TemperatureHumidityPressure
High88 °F (May 18, 5:00 PM)100% (May 17, 6:00 AM)30.42 "Hg (May 17, 6:00 AM)
Low35 °F (May 14, 5:00 AM)24% (May 20, 6:00 PM)29.66 "Hg (May 19, 4:00 PM)
Average63 °F59%30.03 "Hg
* Reported May 13 9:00 PM — May 28 9:00 PM, Cornwall, Weather by CustomWeather, © 2015

Note: Actual official high and low records may vary slightly from our data, if they occured in-between our weather recording intervals... More about our weather records

Advertising

Cornwall weather history for previous 24 hours

 ConditionsComfort  
Time TempWeatherWind HumidityBarometerVisibility
9:00 PM
Thu, May 28
60 °FCool.1 mph92%30.22 "HgN/A
8:00 PM68 °FMild.3 mph68%30.20 "HgN/A
7:00 PM70 °FMild.8 mph64%30.17 "HgN/A
6:00 PM68 °FMild.8 mph76%30.16 "HgN/A
5:00 PM66 °FMild.7 mph86%30.15 "HgN/A
4:00 PM65 °FMild.12 mph90%30.13 "HgN/A
3:00 PM64 °FMild.12 mph88%30.11 "HgN/A
2:00 PM67 °FMild.13 mph82%30.08 "HgN/A
1:00 PM70 °FMild.10 mph80%30.06 "HgN/A
12:00 PM65 °FMild.10 mph91%30.05 "HgN/A
11:00 AM68 °FMild.14 mph83%30.03 "HgN/A
10:00 AM70 °FMild.10 mph77%30.01 "HgN/A
9:00 AM69 °FMild.10 mph80%30.01 "HgN/A
8:00 AM70 °FMild.8 mph74%30.00 "HgN/A
7:00 AM69 °FMild.9 mph73%29.99 "HgN/A
6:00 AM69 °FMild.10 mph72%29.98 "HgN/A
5:00 AM69 °FMild.8 mph71%29.95 "HgN/A
4:00 AM71 °FMild.9 mph65%29.95 "HgN/A
3:00 AM71 °FMild.8 mph65%29.95 "HgN/A
2:00 AM73 °FMild.15 mph60%29.94 "HgN/A
1:00 AM73 °FMild.9 mph66%29.93 "HgN/A
12:00 AM73 °FMild.6 mph68%29.93 "HgN/A
11:00 PM
Wed, May 27
75 °FMild.8 mph67%29.93 "HgN/A
Weather by CustomWeather, © 2015

See weather overviewHow to use our weather pages